Date_Time,Julian_Date,Latitude,Longitude,Instrument_Depth,U,V,Speed,Direction
(yyyy-mm-dd hh:mn:ss UTC),(JD),(+ deg. North),(+ deg. East),(m),(cm/s),(cm/s),(cm/s),(deg True)
1983-08-10 19:30:00 UTC,2445557.312500,28.7317,-95.2428,0192,5.29,7.28,9.0000,36.0000
1983-08-10 20:00:00 UTC,2445557.333333,28.7317,-95.2428,0192,4.85,8.75,10.0000,29.0000
1983-08-10 20:30:00 UTC,2445557.354167,28.7317,-95.2428,0192,4.23,9.06,10.0000,25.0000
1983-08-10 21:00:00 UTC,2445557.375000,28.7317,-95.2428,0192,3.80,8.16,9.0000,25.0000
1983-08-10 21:30:00 UTC,2445557.395833,28.7317,-95.2428,0192,4.36,6.71,8.0000,33.0000
1983-08-10 22:00:00 UTC,2445557.416667,28.7317,-95.2428,0192,5.56,5.75,8.0000,44.0000
1983-08-10 22:30:00 UTC,2445557.437500,28.7317,-95.2428,0192,6.00,3.61,7.0000,59.0000
1983-08-10 23:00:00 UTC,2445557.458333,28.7317,-95.2428,0192,5.94,0.84,6.0000,82.0000
1983-08-10 23:30:00 UTC,2445557.479167,28.7317,-95.2428,0192,6.66,-2.16,7.0000,108.0000
1983-08-11 00:00:00 UTC,2445557.500000,28.7317,-95.2428,0192,6.55,-4.59,8.0000,125.0000
1983-08-11 00:30:00 UTC,2445557.520833,28.7317,-95.2428,0192,7.36,-8.17,11.0000,138.0000
1983-08-11 01:00:00 UTC,2445557.541667,28.7317,-95.2428,0192,7.21,-12.00,14.0000,149.0000
1983-08-11 01:30:00 UTC,2445557.562500,28.7317,-95.2428,0192,5.13,-14.10,15.0000,160.0000
1983-08-11 02:00:00 UTC,2445557.583333,28.7317,-95.2428,0192,1.83,-14.89,15.0000,173.0000
1983-08-11 02:30:00 UTC,2445557.604167,28.7317,-95.2428,0192,-0.84,-15.98,16.0000,183.0000
1983-08-11 03:00:00 UTC,2445557.625000,28.7317,-95.2428,0192,-2.82,-17.78,18.0000,189.0000
1983-08-11 03:30:00 UTC,2445557.645833,28.7317,-95.2428,0192,-5.26,-17.21,18.0000,197.0000
1983-08-11 04:00:00 UTC,2445557.666667,28.7317,-95.2428,0192,-8.17,-16.04,18.0000,207.0000
1983-08-11 04:30:00 UTC,2445557.687500,28.7317,-95.2428,0192,-10.35,-15.93,19.0000,213.0000
1983-08-11 05:00:00 UTC,2445557.708333,28.7317,-95.2428,0192,-10.35,-15.93,19.0000,213.0000
1983-08-11 05:30:00 UTC,2445557.729167,28.7317,-95.2428,0192,-9.27,-15.43,18.0000,211.0000
1983-08-11 06:00:00 UTC,2445557.750000,28.7317,-95.2428,0192,-9.00,-15.59,18.0000,210.0000
1983-08-11 06:30:00 UTC,2445557.770833,28.7317,-95.2428,0192,-9.00,-15.59,18.0000,210.0000
1983-08-11 07:00:00 UTC,2445557.791667,28.7317,-95.2428,0192,-8.76,-14.57,17.0000,211.0000
1983-08-11 07:30:00 UTC,2445557.812500,28.7317,-95.2428,0192,-8.39,-12.44,15.0000,214.0000
1983-08-11 08:00:00 UTC,2445557.833333,28.7317,-95.2428,0192,-8.49,-8.49,12.0000,225.0000
1983-08-11 08:30:00 UTC,2445557.854167,28.7317,-95.2428,0192,-7.52,-2.74,8.0000,250.0000
1983-08-11 09:00:00 UTC,2445557.875000,28.7317,-95.2428,0192,-6.66,2.16,7.0000,288.0000
1983-08-11 09:30:00 UTC,2445557.895833,28.7317,-95.2428,0192,-8.09,3.95,9.0000,296.0000
1983-08-11 10:00:00 UTC,2445557.916667,28.7317,-95.2428,0192,-9.46,3.26,10.0000,289.0000
1983-08-11 10:30:00 UTC,2445557.937500,28.7317,-95.2428,0192,-10.57,3.03,11.0000,286.0000
1983-08-11 11:00:00 UTC,2445557.958333,28.7317,-95.2428,0192,-9.61,2.76,10.0000,286.0000
1983-08-11 11:30:00 UTC,2445557.979167,28.7317,-95.2428,0192,-8.56,2.78,9.0000,288.0000
1983-08-11 12:00:00 UTC,2445558.000000,28.7317,-95.2428,0192,-7.52,2.74,8.0000,290.0000
1983-08-11 12:30:00 UTC,2445558.020833,28.7317,-95.2428,0192,-7.47,2.87,8.0000,291.0000
1983-08-11 13:00:00 UTC,2445558.041667,28.7317,-95.2428,0192,-8.40,3.23,9.0000,291.0000
1983-08-11 13:30:00 UTC,2445558.062500,28.7317,-95.2428,0192,-8.40,3.23,9.0000,291.0000
1983-08-11 14:00:00 UTC,2445558.083333,28.7317,-95.2428,0192,-6.49,2.62,7.0000,292.0000
1983-08-11 14:30:00 UTC,2445558.104167,28.7317,-95.2428,0192,-6.34,2.96,7.0000,295.0000
1983-08-11 15:00:00 UTC,2445558.125000,28.7317,-95.2428,0192,-4.49,2.19,5.0000,296.0000
1983-08-11 15:30:00 UTC,2445558.145833,28.7317,-95.2428,0192,-3.24,2.35,4.0000,306.0000
1983-08-11 16:00:00 UTC,2445558.166667,28.7317,-95.2428,0192,-1.30,3.78,4.0000,341.0000
1983-08-11 16:30:00 UTC,2445558.187500,28.7317,-95.2428,0192,-0.21,6.00,6.0000,358.0000
1983-08-11 17:00:00 UTC,2445558.208333,28.7317,-95.2428,0192,0.97,7.94,8.0000,7.0000
1983-08-11 17:30:00 UTC,2445558.229167,28.7317,-95.2428,0192,2.39,6.58,7.0000,20.0000
1983-08-11 18:00:00 UTC,2445558.250000,28.7317,-95.2428,0192,4.50,5.36,7.0000,40.0000
1983-08-11 18:30:00 UTC,2445558.270833,28.7317,-95.2428,0192,6.04,5.25,8.0000,49.0000
1983-08-11 19:00:00 UTC,2445558.291667,28.7317,-95.2428,0192,7.19,6.95,10.0000,46.0000
1983-08-11 19:30:00 UTC,2445558.312500,28.7317,-95.2428,0192,8.34,8.63,12.0000,44.0000
1983-08-11 20:00:00 UTC,2445558.333333,28.7317,-95.2428,0192,10.07,9.73,14.0000,46.0000
1983-08-11 20:30:00 UTC,2445558.354167,28.7317,-95.2428,0192,11.89,10.71,16.0000,48.0000
1983-08-11 21:00:00 UTC,2445558.375000,28.7317,-95.2428,0192,13.38,12.04,18.0000,48.0000
1983-08-11 21:30:00 UTC,2445558.395833,28.7317,-95.2428,0192,14.34,12.47,19.0000,49.0000
1983-08-11 22:00:00 UTC,2445558.416667,28.7317,-95.2428,0192,15.56,10.90,19.0000,55.0000
1983-08-11 22:30:00 UTC,2445558.437500,28.7317,-95.2428,0192,14.72,8.50,17.0000,60.0000
1983-08-11 23:00:00 UTC,2445558.458333,28.7317,-95.2428,0192,14.10,5.13,15.0000,70.0000
1983-08-11 23:30:00 UTC,2445558.479167,28.7317,-95.2428,0192,13.98,0.73,14.0000,87.0000
1983-08-12 00:00:00 UTC,2445558.500000,28.7317,-95.2428,0192,13.24,-4.56,14.0000,109.0000
1983-08-12 00:30:00 UTC,2445558.520833,28.7317,-95.2428,0192,11.82,-9.23,15.0000,128.0000
1983-08-12 01:00:00 UTC,2445558.541667,28.7317,-95.2428,0192,10.50,-12.08,16.0000,139.0000
1983-08-12 01:30:00 UTC,2445558.562500,28.7317,-95.2428,0192,10.07,-12.43,16.0000,141.0000
1983-08-12 02:00:00 UTC,2445558.583333,28.7317,-95.2428,0192,8.87,-9.51,13.0000,137.0000
1983-08-12 02:30:00 UTC,2445558.604167,28.7317,-95.2428,0192,6.43,-7.66,10.0000,140.0000
1983-08-12 03:00:00 UTC,2445558.625000,28.7317,-95.2428,0192,5.33,-9.62,11.0000,151.0000
1983-08-12 03:30:00 UTC,2445558.645833,28.7317,-95.2428,0192,3.51,-11.48,12.0000,163.0000
1983-08-12 04:00:00 UTC,2445558.666667,28.7317,-95.2428,0192,1.13,-12.95,13.0000,175.0000
1983-08-12 04:30:00 UTC,2445558.687500,28.7317,-95.2428,0192,-0.68,-12.98,13.0000,183.0000
1983-08-12 05:00:00 UTC,2445558.708333,28.7317,-95.2428,0192,-1.67,-15.91,16.0000,186.0000
1983-08-12 05:30:00 UTC,2445558.729167,28.7317,-95.2428,0192,-3.24,-16.69,17.0000,191.0000
1983-08-12 06:00:00 UTC,2445558.750000,28.7317,-95.2428,0192,-4.68,-15.30,16.0000,197.0000
1983-08-12 06:30:00 UTC,2445558.770833,28.7317,-95.2428,0192,0.26,15.00,15.0000,1.0000
1983-08-12 07:00:00 UTC,2445558.791667,28.7317,-95.2428,0192,-5.69,-12.79,14.0000,204.0000
1983-08-12 07:30:00 UTC,2445558.812500,28.7317,-95.2428,0192,-8.81,-10.88,14.0000,219.0000
1983-08-12 08:00:00 UTC,2445558.833333,28.7317,-95.2428,0192,-11.02,-6.89,13.0000,238.0000
1983-08-12 08:30:00 UTC,2445558.854167,28.7317,-95.2428,0192,-13.16,-4.79,14.0000,250.0000
1983-08-12 09:00:00 UTC,2445558.875000,28.7317,-95.2428,0192,-12.72,-2.70,13.0000,258.0000
1983-08-12 09:30:00 UTC,2445558.895833,28.7317,-95.2428,0192,-10.99,-0.38,11.0000,268.0000
1983-08-12 10:00:00 UTC,2445558.916667,28.7317,-95.2428,0192,-9.66,2.59,10.0000,285.0000
1983-08-12 10:30:00 UTC,2445558.937500,28.7317,-95.2428,0192,-7.66,6.43,10.0000,310.0000
1983-08-12 11:00:00 UTC,2445558.958333,28.7317,-95.2428,0192,-5.33,9.62,11.0000,331.0000
1983-08-12 11:30:00 UTC,2445558.979167,28.7317,-95.2428,0192,-3.11,11.59,12.0000,345.0000
1983-08-12 12:00:00 UTC,2445559.000000,28.7317,-95.2428,0192,-0.19,11.00,11.0000,359.0000
1983-08-12 12:30:00 UTC,2445559.020833,28.7317,-95.2428,0192,1.72,10.86,11.0000,9.0000
1983-08-12 13:00:00 UTC,2445559.041667,28.7317,-95.2428,0192,1.91,9.82,10.0000,11.0000
1983-08-12 13:30:00 UTC,2445559.062500,28.7317,-95.2428,0192,1.56,8.86,9.0000,10.0000
1983-08-12 14:00:00 UTC,2445559.083333,28.7317,-95.2428,0192,1.25,7.90,8.0000,9.0000
1983-08-12 14:30:00 UTC,2445559.104167,28.7317,-95.2428,0192,1.10,6.91,7.0000,9.0000
1983-08-12 15:00:00 UTC,2445559.125000,28.7317,-95.2428,0192,1.25,7.90,8.0000,9.0000
1983-08-12 15:30:00 UTC,2445559.145833,28.7317,-95.2428,0192,2.02,8.77,9.0000,13.0000
1983-08-12 16:00:00 UTC,2445559.166667,28.7317,-95.2428,0192,3.23,8.40,9.0000,21.0000
1983-08-12 16:30:00 UTC,2445559.187500,28.7317,-95.2428,0192,5.45,8.39,10.0000,33.0000
1983-08-12 17:00:00 UTC,2445559.208333,28.7317,-95.2428,0192,7.87,9.06,12.0000,41.0000
1983-08-12 17:30:00 UTC,2445559.229167,28.7317,-95.2428,0192,10.79,10.42,15.0000,46.0000
1983-08-12 18:00:00 UTC,2445559.250000,28.7317,-95.2428,0192,12.26,10.28,16.0000,50.0000
1983-08-12 18:30:00 UTC,2445559.270833,28.7317,-95.2428,0192,13.99,11.33,18.0000,51.0000
1983-08-12 19:00:00 UTC,2445559.291667,28.7317,-95.2428,0192,14.12,12.71,19.0000,48.0000
1983-08-12 19:30:00 UTC,2445559.312500,28.7317,-95.2428,0192,13.38,14.86,20.0000,42.0000
1983-08-12 20:00:00 UTC,2445559.333333,28.7317,-95.2428,0192,13.85,17.10,22.0000,39.0000
1983-08-12 20:30:00 UTC,2445559.354167,28.7317,-95.2428,0192,15.09,17.36,23.0000,41.0000
1983-08-12 21:00:00 UTC,2445559.375000,28.7317,-95.2428,0192,15.43,18.39,24.0000,40.0000
1983-08-12 21:30:00 UTC,2445559.395833,28.7317,-95.2428,0192,15.49,22.12,27.0000,35.0000
1983-08-12 22:00:00 UTC,2445559.416667,28.7317,-95.2428,0192,17.05,23.46,29.0000,36.0000
1983-08-12 22:30:00 UTC,2445559.437500,28.7317,-95.2428,0192,19.28,22.98,30.0000,40.0000
1983-08-12 23:00:00 UTC,2445559.458333,28.7317,-95.2428,0192,17.36,20.68,27.0000,40.0000
1983-08-12 23:30:00 UTC,2445559.479167,28.7317,-95.2428,0192,16.73,18.58,25.0000,42.0000
1983-08-13 00:00:00 UTC,2445559.500000,28.7317,-95.2428,0192,16.97,16.97,24.0000,45.0000
1983-08-13 00:30:00 UTC,2445559.520833,28.7317,-95.2428,0192,17.09,15.39,23.0000,48.0000
1983-08-13 01:00:00 UTC,2445559.541667,28.7317,-95.2428,0192,16.60,14.43,22.0000,49.0000
1983-08-13 01:30:00 UTC,2445559.562500,28.7317,-95.2428,0192,14.63,13.64,20.0000,47.0000
1983-08-13 02:00:00 UTC,2445559.583333,28.7317,-95.2428,0192,13.16,12.28,18.0000,47.0000
1983-08-13 02:30:00 UTC,2445559.604167,28.7317,-95.2428,0192,13.21,10.70,17.0000,51.0000
1983-08-13 03:00:00 UTC,2445559.625000,28.7317,-95.2428,0192,13.21,10.70,17.0000,51.0000
1983-08-13 03:30:00 UTC,2445559.645833,28.7317,-95.2428,0192,11.89,10.71,16.0000,48.0000
1983-08-13 04:00:00 UTC,2445559.666667,28.7317,-95.2428,0192,11.31,11.31,16.0000,45.0000
1983-08-13 04:30:00 UTC,2445559.687500,28.7317,-95.2428,0192,9.64,11.49,15.0000,40.0000
1983-08-13 05:00:00 UTC,2445559.708333,28.7317,-95.2428,0192,8.39,12.44,15.0000,34.0000
1983-08-13 05:30:00 UTC,2445559.729167,28.7317,-95.2428,0192,7.27,13.12,15.0000,29.0000
1983-08-13 06:00:00 UTC,2445559.750000,28.7317,-95.2428,0192,6.58,13.48,15.0000,26.0000
1983-08-13 06:30:00 UTC,2445559.770833,28.7317,-95.2428,0192,6.81,13.37,15.0000,27.0000
1983-08-13 07:00:00 UTC,2445559.791667,28.7317,-95.2428,0192,7.50,12.99,15.0000,30.0000
1983-08-13 07:30:00 UTC,2445559.812500,28.7317,-95.2428,0192,6.79,12.24,14.0000,29.0000
1983-08-13 08:00:00 UTC,2445559.833333,28.7317,-95.2428,0192,6.14,12.58,14.0000,26.0000
1983-08-13 08:30:00 UTC,2445559.854167,28.7317,-95.2428,0192,7.04,13.24,15.0000,28.0000
1983-08-13 09:00:00 UTC,2445559.875000,28.7317,-95.2428,0192,8.48,13.57,16.0000,32.0000
1983-08-13 09:30:00 UTC,2445559.895833,28.7317,-95.2428,0192,9.51,14.09,17.0000,34.0000
1983-08-13 10:00:00 UTC,2445559.916667,28.7317,-95.2428,0192,9.26,14.26,17.0000,33.0000
1983-08-13 10:30:00 UTC,2445559.937500,28.7317,-95.2428,0192,8.95,13.26,16.0000,34.0000
1983-08-13 11:00:00 UTC,2445559.958333,28.7317,-95.2428,0192,8.82,12.14,15.0000,36.0000
1983-08-13 11:30:00 UTC,2445559.979167,28.7317,-95.2428,0192,8.60,12.29,15.0000,35.0000
1983-08-13 12:00:00 UTC,2445560.000000,28.7317,-95.2428,0192,7.83,11.61,14.0000,34.0000
1983-08-13 12:30:00 UTC,2445560.020833,28.7317,-95.2428,0192,7.08,10.90,13.0000,33.0000
1983-08-13 13:00:00 UTC,2445560.041667,28.7317,-95.2428,0192,5.83,9.33,11.0000,32.0000
1983-08-13 13:30:00 UTC,2445560.062500,28.7317,-95.2428,0192,5.15,8.57,10.0000,31.0000
1983-08-13 14:00:00 UTC,2445560.083333,28.7317,-95.2428,0192,4.64,7.71,9.0000,31.0000
1983-08-13 14:30:00 UTC,2445560.104167,28.7317,-95.2428,0192,4.12,6.86,8.0000,31.0000
1983-08-13 15:00:00 UTC,2445560.125000,28.7317,-95.2428,0192,4.17,4.32,6.0000,44.0000
1983-08-13 15:30:00 UTC,2445560.145833,28.7317,-95.2428,0192,7.69,2.21,8.0000,74.0000
1983-08-13 16:00:00 UTC,2445560.166667,28.7317,-95.2428,0192,8.89,1.41,9.0000,81.0000
1983-08-13 16:30:00 UTC,2445560.187500,28.7317,-95.2428,0192,5.36,4.50,7.0000,50.0000
1983-08-13 17:00:00 UTC,2445560.208333,28.7317,-95.2428,0192,0.70,9.98,10.0000,4.0000
1983-08-13 17:30:00 UTC,2445560.229167,28.7317,-95.2428,0192,-0.21,12.00,12.0000,359.0000
1983-08-13 18:00:00 UTC,2445560.250000,28.7317,-95.2428,0192,0.68,12.98,13.0000,3.0000
1983-08-13 18:30:00 UTC,2445560.270833,28.7317,-95.2428,0192,0.79,14.98,15.0000,3.0000
1983-08-13 19:00:00 UTC,2445560.291667,28.7317,-95.2428,0192,0.94,17.98,18.0000,3.0000
1983-08-13 19:30:00 UTC,2445560.312500,28.7317,-95.2428,0192,1.05,19.97,20.0000,3.0000
1983-08-13 20:00:00 UTC,2445560.333333,28.7317,-95.2428,0192,2.30,21.88,22.0000,6.0000
1983-08-13 20:30:00 UTC,2445560.354167,28.7317,-95.2428,0192,4.96,25.52,26.0000,11.0000
1983-08-13 21:00:00 UTC,2445560.375000,28.7317,-95.2428,0192,6.99,26.08,27.0000,15.0000
1983-08-13 21:30:00 UTC,2445560.395833,28.7317,-95.2428,0192,7.49,21.75,23.0000,19.0000
1983-08-13 22:00:00 UTC,2445560.416667,28.7317,-95.2428,0192,6.74,16.69,18.0000,22.0000
1983-08-13 22:30:00 UTC,2445560.437500,28.7317,-95.2428,0192,6.91,15.53,17.0000,24.0000
1983-08-13 23:00:00 UTC,2445560.458333,28.7317,-95.2428,0192,7.04,13.24,15.0000,28.0000
1983-08-13 23:30:00 UTC,2445560.479167,28.7317,-95.2428,0192,8.17,12.58,15.0000,33.0000
1983-08-14 00:00:00 UTC,2445560.500000,28.7317,-95.2428,0192,9.23,11.82,15.0000,38.0000
1983-08-14 00:30:00 UTC,2445560.520833,28.7317,-95.2428,0192,10.91,11.70,16.0000,43.0000
1983-08-14 01:00:00 UTC,2445560.541667,28.7317,-95.2428,0192,11.70,10.91,16.0000,47.0000
1983-08-14 01:30:00 UTC,2445560.562500,28.7317,-95.2428,0192,9.90,9.90,14.0000,45.0000
1983-08-14 02:00:00 UTC,2445560.583333,28.7317,-95.2428,0192,7.22,9.58,12.0000,37.0000
1983-08-14 02:30:00 UTC,2445560.604167,28.7317,-95.2428,0192,5.50,9.53,11.0000,30.0000
1983-08-14 03:00:00 UTC,2445560.625000,28.7317,-95.2428,0192,5.33,9.62,11.0000,29.0000
1983-08-14 03:30:00 UTC,2445560.645833,28.7317,-95.2428,0192,5.83,9.33,11.0000,32.0000
1983-08-14 04:00:00 UTC,2445560.666667,28.7317,-95.2428,0192,7.05,9.71,12.0000,36.0000
1983-08-14 04:30:00 UTC,2445560.687500,28.7317,-95.2428,0192,6.71,9.95,12.0000,34.0000
1983-08-14 05:00:00 UTC,2445560.708333,28.7317,-95.2428,0192,5.26,10.79,12.0000,26.0000
1983-08-14 05:30:00 UTC,2445560.729167,28.7317,-95.2428,0192,4.66,12.14,13.0000,21.0000
1983-08-14 06:00:00 UTC,2445560.750000,28.7317,-95.2428,0192,5.92,12.69,14.0000,25.0000
1983-08-14 06:30:00 UTC,2445560.770833,28.7317,-95.2428,0192,8.39,12.44,15.0000,34.0000
1983-08-14 07:00:00 UTC,2445560.791667,28.7317,-95.2428,0192,9.85,12.61,16.0000,38.0000
1983-08-14 07:30:00 UTC,2445560.812500,28.7317,-95.2428,0192,10.47,13.40,17.0000,38.0000
1983-08-14 08:00:00 UTC,2445560.833333,28.7317,-95.2428,0192,10.47,13.40,17.0000,38.0000
1983-08-14 08:30:00 UTC,2445560.854167,28.7317,-95.2428,0192,11.59,12.43,17.0000,43.0000
1983-08-14 09:00:00 UTC,2445560.875000,28.7317,-95.2428,0192,11.89,10.71,16.0000,48.0000
1983-08-14 09:30:00 UTC,2445560.895833,28.7317,-95.2428,0192,11.66,9.44,15.0000,51.0000
1983-08-14 10:00:00 UTC,2445560.916667,28.7317,-95.2428,0192,11.03,8.62,14.0000,52.0000
1983-08-14 10:30:00 UTC,2445560.937500,28.7317,-95.2428,0192,12.44,8.39,15.0000,56.0000
1983-08-14 11:00:00 UTC,2445560.958333,28.7317,-95.2428,0192,14.50,6.76,16.0000,65.0000
1983-08-14 11:30:00 UTC,2445560.979167,28.7317,-95.2428,0192,16.56,3.82,17.0000,77.0000
1983-08-14 12:00:00 UTC,2445561.000000,28.7317,-95.2428,0192,18.95,1.33,19.0000,86.0000
1983-08-14 12:30:00 UTC,2445561.020833,28.7317,-95.2428,0192,20.00,0.00,20.0000,90.0000
1983-08-14 13:00:00 UTC,2445561.041667,28.7317,-95.2428,0192,14.92,1.57,15.0000,84.0000
1983-08-14 13:30:00 UTC,2445561.062500,28.7317,-95.2428,0192,8.66,5.00,10.0000,60.0000
1983-08-14 14:00:00 UTC,2445561.083333,28.7317,-95.2428,0192,3.51,7.19,8.0000,26.0000
1983-08-14 14:30:00 UTC,2445561.104167,28.7317,-95.2428,0192,-0.84,7.96,8.0000,354.0000
1983-08-14 15:00:00 UTC,2445561.125000,28.7317,-95.2428,0192,-4.12,10.20,11.0000,338.0000
1983-08-14 15:30:00 UTC,2445561.145833,28.7317,-95.2428,0192,-3.40,10.46,11.0000,342.0000
1983-08-14 16:00:00 UTC,2445561.166667,28.7317,-95.2428,0192,-1.05,9.95,10.0000,354.0000
1983-08-14 16:30:00 UTC,2445561.187500,28.7317,-95.2428,0192,-0.58,10.98,11.0000,357.0000
1983-08-14 17:00:00 UTC,2445561.208333,28.7317,-95.2428,0192,-0.19,11.00,11.0000,359.0000
1983-08-14 17:30:00 UTC,2445561.229167,28.7317,-95.2428,0192,1.74,9.85,10.0000,10.0000
1983-08-14 18:00:00 UTC,2445561.250000,28.7317,-95.2428,0192,4.54,8.91,10.0000,27.0000
1983-08-14 18:30:00 UTC,2445561.270833,28.7317,-95.2428,0192,6.02,7.99,10.0000,37.0000
1983-08-14 19:00:00 UTC,2445561.291667,28.7317,-95.2428,0192,6.29,7.77,10.0000,39.0000
1983-08-14 19:30:00 UTC,2445561.312500,28.7317,-95.2428,0192,6.77,8.67,11.0000,38.0000
1983-08-14 20:00:00 UTC,2445561.333333,28.7317,-95.2428,0192,8.00,10.24,13.0000,38.0000
1983-08-14 20:30:00 UTC,2445561.354167,28.7317,-95.2428,0192,9.00,10.72,14.0000,40.0000
1983-08-14 21:00:00 UTC,2445561.375000,28.7317,-95.2428,0192,9.73,10.07,14.0000,44.0000
1983-08-14 21:30:00 UTC,2445561.395833,28.7317,-95.2428,0192,10.71,11.89,16.0000,42.0000
1983-08-14 22:00:00 UTC,2445561.416667,28.7317,-95.2428,0192,10.23,13.58,17.0000,37.0000
1983-08-14 22:30:00 UTC,2445561.437500,28.7317,-95.2428,0192,9.75,13.93,17.0000,35.0000
1983-08-14 23:00:00 UTC,2445561.458333,28.7317,-95.2428,0192,8.43,11.18,14.0000,37.0000
1983-08-14 23:30:00 UTC,2445561.479167,28.7317,-95.2428,0192,6.77,8.67,11.0000,38.0000
1983-08-15 00:00:00 UTC,2445561.500000,28.7317,-95.2428,0192,5.16,7.37,9.0000,35.0000
1983-08-15 00:30:00 UTC,2445561.520833,28.7317,-95.2428,0192,5.83,9.33,11.0000,32.0000
1983-08-15 01:00:00 UTC,2445561.541667,28.7317,-95.2428,0192,6.36,10.18,12.0000,32.0000
1983-08-15 01:30:00 UTC,2445561.562500,28.7317,-95.2428,0192,6.50,11.26,13.0000,30.0000
1983-08-15 02:00:00 UTC,2445561.583333,28.7317,-95.2428,0192,4.02,12.36,13.0000,18.0000
1983-08-15 02:30:00 UTC,2445561.604167,28.7317,-95.2428,0192,1.12,15.96,16.0000,4.0000
1983-08-15 03:00:00 UTC,2445561.625000,28.7317,-95.2428,0192,-0.30,17.00,17.0000,359.0000
1983-08-15 03:30:00 UTC,2445561.645833,28.7317,-95.2428,0192,-0.28,16.00,16.0000,359.0000
1983-08-15 04:00:00 UTC,2445561.666667,28.7317,-95.2428,0192,0.52,14.99,15.0000,2.0000
1983-08-15 04:30:00 UTC,2445561.687500,28.7317,-95.2428,0192,0.98,13.97,14.0000,4.0000
1983-08-15 05:00:00 UTC,2445561.708333,28.7317,-95.2428,0192,1.81,12.87,13.0000,8.0000
1983-08-15 05:30:00 UTC,2445561.729167,28.7317,-95.2428,0192,2.48,12.76,13.0000,11.0000
1983-08-15 06:00:00 UTC,2445561.750000,28.7317,-95.2428,0192,2.29,11.78,12.0000,11.0000
1983-08-15 06:30:00 UTC,2445561.770833,28.7317,-95.2428,0192,1.88,11.85,12.0000,9.0000
1983-08-15 07:00:00 UTC,2445561.791667,28.7317,-95.2428,0192,1.81,12.87,13.0000,8.0000
1983-08-15 07:30:00 UTC,2445561.812500,28.7317,-95.2428,0192,2.19,13.83,14.0000,9.0000
1983-08-15 08:00:00 UTC,2445561.833333,28.7317,-95.2428,0192,2.19,13.83,14.0000,9.0000
1983-08-15 08:30:00 UTC,2445561.854167,28.7317,-95.2428,0192,1.83,14.89,15.0000,7.0000
1983-08-15 09:00:00 UTC,2445561.875000,28.7317,-95.2428,0192,2.23,15.84,16.0000,8.0000
1983-08-15 09:30:00 UTC,2445561.895833,28.7317,-95.2428,0192,3.53,16.63,17.0000,12.0000
1983-08-15 10:00:00 UTC,2445561.916667,28.7317,-95.2428,0192,4.69,16.34,17.0000,16.0000
1983-08-15 10:30:00 UTC,2445561.937500,28.7317,-95.2428,0192,5.25,16.17,17.0000,18.0000
1983-08-15 11:00:00 UTC,2445561.958333,28.7317,-95.2428,0192,4.96,17.30,18.0000,16.0000
1983-08-15 11:30:00 UTC,2445561.979167,28.7317,-95.2428,0192,4.60,18.44,19.0000,14.0000
1983-08-15 12:00:00 UTC,2445562.000000,28.7317,-95.2428,0192,4.84,19.41,20.0000,14.0000
1983-08-15 12:30:00 UTC,2445562.020833,28.7317,-95.2428,0192,5.18,19.32,20.0000,15.0000
1983-08-15 13:00:00 UTC,2445562.041667,28.7317,-95.2428,0192,5.24,18.26,19.0000,16.0000
1983-08-15 13:30:00 UTC,2445562.062500,28.7317,-95.2428,0192,5.26,17.21,18.0000,17.0000
1983-08-15 14:00:00 UTC,2445562.083333,28.7317,-95.2428,0192,5.86,17.02,18.0000,19.0000
1983-08-15 14:30:00 UTC,2445562.104167,28.7317,-95.2428,0192,6.16,16.91,18.0000,20.0000
1983-08-15 15:00:00 UTC,2445562.125000,28.7317,-95.2428,0192,5.81,15.97,17.0000,20.0000
1983-08-15 15:30:00 UTC,2445562.145833,28.7317,-95.2428,0192,6.37,15.76,17.0000,22.0000
1983-08-15 16:00:00 UTC,2445562.166667,28.7317,-95.2428,0192,6.91,15.53,17.0000,24.0000
1983-08-15 16:30:00 UTC,2445562.187500,28.7317,-95.2428,0192,5.86,13.81,15.0000,23.0000
1983-08-15 17:00:00 UTC,2445562.208333,28.7317,-95.2428,0192,4.33,13.31,14.0000,18.0000
1983-08-15 17:30:00 UTC,2445562.229167,28.7317,-95.2428,0192,3.12,14.67,15.0000,12.0000
1983-08-15 18:00:00 UTC,2445562.250000,28.7317,-95.2428,0192,2.78,15.76,16.0000,10.0000
1983-08-15 18:30:00 UTC,2445562.270833,28.7317,-95.2428,0192,3.05,15.71,16.0000,11.0000
1983-08-15 19:00:00 UTC,2445562.291667,28.7317,-95.2428,0192,2.91,13.69,14.0000,12.0000
1983-08-15 19:30:00 UTC,2445562.312500,28.7317,-95.2428,0192,2.92,12.67,13.0000,13.0000
1983-08-15 20:00:00 UTC,2445562.333333,28.7317,-95.2428,0192,2.08,11.82,12.0000,10.0000
1983-08-15 20:30:00 UTC,2445562.354167,28.7317,-95.2428,0192,1.46,11.91,12.0000,7.0000
1983-08-15 21:00:00 UTC,2445562.375000,28.7317,-95.2428,0192,1.05,11.95,12.0000,5.0000
1983-08-15 21:30:00 UTC,2445562.395833,28.7317,-95.2428,0192,0.84,11.97,12.0000,4.0000
1983-08-15 22:00:00 UTC,2445562.416667,28.7317,-95.2428,0192,0.96,10.96,11.0000,5.0000
1983-08-15 22:30:00 UTC,2445562.437500,28.7317,-95.2428,0192,1.22,9.93,10.0000,7.0000
1983-08-15 23:00:00 UTC,2445562.458333,28.7317,-95.2428,0192,0.97,7.94,8.0000,7.0000
1983-08-15 23:30:00 UTC,2445562.479167,28.7317,-95.2428,0192,0.42,7.99,8.0000,3.0000
1983-08-16 00:00:00 UTC,2445562.500000,28.7317,-95.2428,0192,-0.31,8.99,9.0000,358.0000
1983-08-16 00:30:00 UTC,2445562.520833,28.7317,-95.2428,0192,-0.16,9.00,9.0000,359.0000
1983-08-16 01:00:00 UTC,2445562.541667,28.7317,-95.2428,0192,1.10,8.93,9.0000,7.0000
1983-08-16 01:30:00 UTC,2445562.562500,28.7317,-95.2428,0192,1.34,6.87,7.0000,11.0000
1983-08-16 02:00:00 UTC,2445562.583333,28.7317,-95.2428,0192,0.37,6.99,7.0000,3.0000
1983-08-16 02:30:00 UTC,2445562.604167,28.7317,-95.2428,0192,-0.73,6.96,7.0000,354.0000
1983-08-16 03:00:00 UTC,2445562.625000,28.7317,-95.2428,0192,-0.73,6.96,7.0000,354.0000
1983-08-16 03:30:00 UTC,2445562.645833,28.7317,-95.2428,0192,-0.61,6.97,7.0000,355.0000
1983-08-16 04:00:00 UTC,2445562.666667,28.7317,-95.2428,0192,-0.87,4.92,5.0000,350.0000
1983-08-16 04:30:00 UTC,2445562.687500,28.7317,-95.2428,0192,-1.36,2.67,3.0000,333.0000
1983-08-16 05:00:00 UTC,2445562.708333,28.7317,-95.2428,0192,-3.06,2.57,4.0000,310.0000
1983-08-16 05:30:00 UTC,2445562.729167,28.7317,-95.2428,0192,-4.32,4.17,6.0000,314.0000
1983-08-16 06:00:00 UTC,2445562.750000,28.7317,-95.2428,0192,-5.46,5.85,8.0000,317.0000
1983-08-16 06:30:00 UTC,2445562.770833,28.7317,-95.2428,0192,-5.36,4.50,7.0000,310.0000
1983-08-16 07:00:00 UTC,2445562.791667,28.7317,-95.2428,0192,-4.60,1.95,5.0000,293.0000
1983-08-16 07:30:00 UTC,2445562.812500,28.7317,-95.2428,0192,-5.96,0.73,6.0000,277.0000
1983-08-16 08:00:00 UTC,2445562.833333,28.7317,-95.2428,0192,-7.00,-0.00,7.0000,270.0000
1983-08-16 08:30:00 UTC,2445562.854167,28.7317,-95.2428,0192,-7.00,-0.24,7.0000,268.0000
1983-08-16 09:00:00 UTC,2445562.875000,28.7317,-95.2428,0192,-5.87,-1.25,6.0000,258.0000
1983-08-16 09:30:00 UTC,2445562.895833,28.7317,-95.2428,0192,-6.29,-3.07,7.0000,244.0000
1983-08-16 10:00:00 UTC,2445562.916667,28.7317,-95.2428,0192,-5.59,-4.21,7.0000,233.0000